TEMPEST-D (43547 NORAD) Tracking and Keplerian Element Data

This shows tracking and keplerian element data for the satellite.

Feedback or suggestion? Click here.




ElementValue
Catalog43547
NameTEMPEST-D
Epoch Orbit5717
Epoch Day199.16770611
Epoch Year2019
RAAN198.6684
Inclination51.637
Eccentricity0.0005064
Argument of Perigee234.3195
Mean Anonmoly125.7326
Mean Motion15.58198614
Decay Rate2.061E-05
L11 43547U 98067NV 19199.16770611 .00002061 00000-0 33349-4 0 9996
L22 43547 51.6370 198.6684 0005064 234.3195 125.7326 15.58198614 57175

Live tracking and technical data element details for TEMPEST-D (NORAD 43547). TEMPEST-D can be tracked NOW for your location showing map with azimuth and elevation plus other details from your city location.

Track the satellite on the map from your city or location and see movement details for azimuth, elevation, latitude, longitude, range, height, and movement on the map or in text.







IsCatalogInMostPopularTable: catalog: 43547, numindb: 195
Update: records affected: 1



GetName: 43547 TEMPEST-D

Hit Count: updated at: Fri, 19 Jul 2019 23:21:59 GMT